Time,TemperatureF,DewpointF,PressureIn,WindDirection,WindDirectionDegrees,WindSpeedMPH,WindSpeedGustMPH,Humidity,HourlyPrecipIn,Conditions,Clouds,dailyrainin,SoftwareType,DateUTC
2013-02-21 00:02:00,19.0,15.0,30.10,North,11,4.0,8.0,84,0.00,,,0.00,,2013-02-21 05:02:00,
2013-02-21 00:12:00,19.0,15.0,30.10,North,11,4.0,8.0,84,0.00,,,0.00,,2013-02-21 05:12:00,
2013-02-21 00:22:00,19.0,15.0,30.10,North,11,6.0,9.0,84,0.00,,,0.00,,2013-02-21 05:22:00,
2013-02-21 00:35:00,19.0,15.0,30.10,North,11,4.0,7.0,84,0.00,,,0.00,,2013-02-21 05:35:00,
2013-02-21 00:45:00,19.0,15.0,30.10,North,11,4.0,7.0,84,0.00,,,0.00,,2013-02-21 05:45:00,
2013-02-21 01:00:00,19.0,15.0,30.10,North,11,5.0,9.0,84,0.00,,,0.00,,2013-02-21 06:00:00,
2013-02-21 01:11:00,19.0,15.0,30.10,North,10,6.0,9.0,84,0.00,,,0.00,,2013-02-21 06:11:00,
2013-02-21 01:21:00,19.0,15.0,30.10,North,11,7.0,8.0,85,0.00,,,0.00,,2013-02-21 06:21:00,
2013-02-21 01:31:00,19.0,15.0,30.09,North,11,4.0,8.0,85,0.00,,,0.00,,2013-02-21 06:31:00,
2013-02-21 01:41:00,19.0,15.0,30.09,North,11,4.0,8.0,85,0.00,,,0.00,,2013-02-21 06:41:00,
2013-02-21 01:52:00,19.0,16.0,30.11,North,11,4.0,8.0,86,0.00,,,0.00,,2013-02-21 06:52:00,
2013-02-21 02:01:00,19.0,16.0,30.11,North,11,5.0,10.0,86,0.00,,,0.00,,2013-02-21 07:01:00,
2013-02-21 02:11:00,19.0,16.0,30.11,North,11,3.0,11.0,86,0.00,,,0.00,,2013-02-21 07:11:00,
2013-02-21 02:21:00,19.0,16.0,30.11,North,11,3.0,11.0,86,0.00,,,0.00,,2013-02-21 07:21:00,
2013-02-21 02:32:00,19.0,16.0,30.11,North,11,5.0,9.0,86,0.00,,,0.00,,2013-02-21 07:32:00,
2013-02-21 02:42:00,19.0,16.0,30.11,North,11,3.0,9.0,87,0.00,,,0.00,,2013-02-21 07:42:00,
2013-02-21 02:52:00,19.0,16.0,30.11,North,11,3.0,9.0,87,0.00,,,0.00,,2013-02-21 07:52:00,
2013-02-21 03:01:00,19.0,16.0,30.11,North,11,5.0,9.0,87,0.00,,,0.00,,2013-02-21 08:01:00,
2013-02-21 03:11:00,19.0,16.0,30.11,North,11,5.0,9.0,87,0.00,,,0.00,,2013-02-21 08:11:00,
2013-02-21 03:21:00,20.0,17.0,30.11,North,11,3.0,10.0,87,0.00,,,0.00,,2013-02-21 08:21:00,
2013-02-21 03:32:00,20.0,17.0,30.11,North,11,5.0,9.0,87,0.00,,,0.00,,2013-02-21 08:32:00,
2013-02-21 03:42:00,20.0,17.0,30.11,North,11,5.0,9.0,87,0.00,,,0.00,,2013-02-21 08:42:00,
2013-02-21 03:52:00,20.0,17.0,30.11,North,11,4.0,9.0,88,0.00,,,0.00,,2013-02-21 08:52:00,
2013-02-21 04:01:00,20.0,17.0,30.11,North,11,4.0,8.0,88,0.00,,,0.00,,2013-02-21 09:01:00,
2013-02-21 04:11:00,20.0,17.0,30.11,North,11,4.0,8.0,88,0.00,,,0.00,,2013-02-21 09:11:00,
2013-02-21 04:22:00,20.0,17.0,30.11,North,11,7.0,9.0,88,0.00,,,0.00,,2013-02-21 09:22:00,
2013-02-21 04:32:00,20.0,17.0,30.11,NNE,12,5.0,8.0,88,0.00,,,0.00,,2013-02-21 09:32:00,
2013-02-21 04:42:00,20.0,17.0,30.11,NNE,12,5.0,8.0,88,0.00,,,0.00,,2013-02-21 09:42:00,
2013-02-21 04:52:00,20.0,17.0,30.11,NNE,12,4.0,8.0,89,0.00,,,0.00,,2013-02-21 09:52:00,
2013-02-21 05:01:00,20.0,17.0,30.12,NNE,12,4.0,6.0,89,0.00,,,0.00,,2013-02-21 10:01:00,
2013-02-21 05:11:00,20.0,17.0,30.12,NNE,12,4.0,6.0,89,0.00,,,0.00,,2013-02-21 10:11:00,
2013-02-21 05:21:00,20.0,17.0,30.12,NNE,13,1.0,8.0,89,0.00,,,0.00,,2013-02-21 10:21:00,
2013-02-21 05:31:00,20.0,17.0,30.13,NNE,12,3.0,6.0,89,0.00,,,0.00,,2013-02-21 10:31:00,
2013-02-21 05:41:00,20.0,17.0,30.13,NNE,12,3.0,6.0,89,0.00,,,0.00,,2013-02-21 10:41:00,
2013-02-21 05:51:00,20.0,18.0,30.13,NNE,13,3.0,6.0,90,0.00,,,0.00,,2013-02-21 10:51:00,
2013-02-21 06:01:00,20.0,17.0,30.15,North,11,4.0,9.0,87,0.00,,,0.00,,2013-02-21 11:01:00,
2013-02-21 06:11:00,20.0,17.0,30.15,North,11,4.0,9.0,87,0.00,,,0.00,,2013-02-21 11:11:00,
2013-02-21 06:21:00,20.0,15.0,30.15,North,10,5.0,14.0,82,0.00,,,0.00,,2013-02-21 11:21:00,
2013-02-21 06:31:00,20.0,16.0,30.16,North,10,3.0,7.0,83,0.00,,,0.00,,2013-02-21 11:31:00,
2013-02-21 06:41:00,20.0,16.0,30.16,North,10,3.0,7.0,83,0.00,,,0.00,,2013-02-21 11:41:00,
2013-02-21 06:52:00,20.0,16.0,30.16,North,11,1.0,6.0,84,0.00,,,0.00,,2013-02-21 11:52:00,
2013-02-21 07:01:00,19.0,16.0,30.16,North,11,5.0,8.0,87,0.00,,,0.00,,2013-02-21 12:01:00,
2013-02-21 07:11:00,19.0,16.0,30.16,North,11,5.0,8.0,87,0.00,,,0.00,,2013-02-21 12:11:00,
2013-02-21 07:21:00,19.0,16.0,30.16,North,11,2.0,5.0,89,0.00,,,0.00,,2013-02-21 12:21:00,
2013-02-21 07:32:00,19.0,16.0,30.17,NNE,12,2.0,5.0,89,0.00,,,0.00,,2013-02-21 12:32:00,
2013-02-21 07:42:00,19.0,17.0,30.18,NNE,12,2.0,4.0,90,0.00,,,0.00,,2013-02-21 12:42:00,
2013-02-21 07:53:00,19.0,17.0,30.18,NNE,12,2.0,4.0,90,0.00,,,0.00,,2013-02-21 12:53:00,
2013-02-21 08:02:00,19.0,17.0,30.19,NNE,12,1.0,3.0,91,0.00,,,0.00,,2013-02-21 13:02:00,
2013-02-21 08:12:00,19.0,17.0,30.19,NNE,12,1.0,3.0,91,0.00,,,0.00,,2013-02-21 13:12:00,
2013-02-21 08:22:00,19.0,17.0,30.19,North,5,5.0,10.0,91,0.00,,,0.00,,2013-02-21 13:22:00,
2013-02-21 08:32:00,19.0,17.0,30.22,North,0,3.0,7.0,90,0.00,,,0.00,,2013-02-21 13:32:00,
2013-02-21 08:42:00,19.0,17.0,30.22,North,0,3.0,7.0,90,0.00,,,0.00,,2013-02-21 13:42:00,
2013-02-21 08:52:00,19.0,17.0,30.21,North,5,3.0,6.0,90,0.00,,,0.00,,2013-02-21 13:52:00,
2013-02-21 09:02:00,19.0,16.0,30.21,North,5,3.0,7.0,89,0.00,,,0.00,,2013-02-21 14:02:00,
2013-02-21 09:11:00,19.0,16.0,30.21,North,5,3.0,7.0,89,0.00,,,0.00,,2013-02-21 14:11:00,
2013-02-21 09:22:00,20.0,17.0,30.22,North,0,4.0,6.0,89,0.00,,,0.00,,2013-02-21 14:22:00,
2013-02-21 09:32:00,20.0,17.0,30.22,North,5,4.0,9.0,88,0.00,,,0.00,,2013-02-21 14:32:00,
2013-02-21 09:42:00,20.0,17.0,30.22,North,5,4.0,9.0,88,0.00,,,0.00,,2013-02-21 14:42:00,
2013-02-21 09:52:00,20.0,17.0,30.21,North,5,6.0,10.0,88,0.00,,,0.00,,2013-02-21 14:52:00,
2013-02-21 10:02:00,20.0,17.0,30.21,North,5,6.0,10.0,87,0.00,,,0.00,,2013-02-21 15:02:00,
2013-02-21 10:12:00,20.0,17.0,30.21,North,5,6.0,10.0,87,0.00,,,0.00,,2013-02-21 15:12:00,
2013-02-21 10:21:00,20.0,16.0,30.21,North,5,5.0,11.0,85,0.00,,,0.00,,2013-02-21 15:21:00,
2013-02-21 10:32:00,20.0,16.0,30.22,North,0,2.0,9.0,83,0.00,,,0.00,,2013-02-21 15:32:00,
2013-02-21 10:42:00,20.0,16.0,30.22,North,0,2.0,9.0,83,0.00,,,0.00,,2013-02-21 15:42:00,
2013-02-21 10:52:00,20.0,16.0,30.22,North,9,2.0,5.0,83,0.00,,,0.00,,2013-02-21 15:52:00,
2013-02-21 11:01:00,21.0,16.0,30.23,North,5,5.0,7.0,80,0.00,,,0.00,,2013-02-21 16:01:00,
2013-02-21 11:12:00,21.0,16.0,30.23,North,9,4.0,7.0,80,0.00,,,0.00,,2013-02-21 16:12:00,
2013-02-21 11:22:00,21.0,16.0,30.23,North,9,4.0,7.0,80,0.00,,,0.00,,2013-02-21 16:22:00,
2013-02-21 11:32:00,21.0,16.0,30.23,North,5,4.0,7.0,79,0.00,,,0.00,,2013-02-21 16:32:00,
2013-02-21 11:42:00,22.0,16.0,30.24,North,9,3.0,6.0,79,0.00,,,0.00,,2013-02-21 16:42:00,
2013-02-21 11:52:00,22.0,16.0,30.24,North,9,3.0,6.0,79,0.00,,,0.00,,2013-02-21 16:52:00,
2013-02-21 12:02:00,22.0,16.0,30.23,North,9,4.0,6.0,79,0.00,,,0.00,,2013-02-21 17:02:00,
2013-02-21 12:11:00,22.0,16.0,30.23,North,9,4.0,6.0,79,0.00,,,0.00,,2013-02-21 17:11:00,
2013-02-21 12:21:00,22.0,16.0,30.22,North,5,10.0,10.0,78,0.00,,,0.00,,2013-02-21 17:21:00,
2013-02-21 12:32:00,22.0,16.0,30.22,North,9,2.0,8.0,78,0.00,,,0.00,,2013-02-21 17:32:00,
2013-02-21 12:42:00,22.0,16.0,30.22,North,9,2.0,8.0,78,0.00,,,0.00,,2013-02-21 17:42:00,
2013-02-21 12:52:00,22.0,16.0,30.21,North,9,5.0,8.0,79,0.00,,,0.00,,2013-02-21 17:52:00,
2013-02-21 13:02:00,22.0,16.0,30.21,North,5,3.0,8.0,77,0.00,,,0.00,,2013-02-21 18:02:00,
2013-02-21 13:12:00,22.0,16.0,30.21,North,5,3.0,8.0,77,0.00,,,0.00,,2013-02-21 18:12:00,
2013-02-21 13:22:00,22.0,16.0,30.21,North,9,3.0,5.0,76,0.00,,,0.00,,2013-02-21 18:22:00,
2013-02-21 13:32:00,22.0,16.0,30.20,North,9,2.0,7.0,78,0.00,,,0.00,,2013-02-21 18:32:00,
2013-02-21 13:42:00,22.0,16.0,30.20,North,9,2.0,7.0,78,0.00,,,0.00,,2013-02-21 18:42:00,
2013-02-21 13:52:00,22.0,16.0,30.22,North,5,4.0,7.0,78,0.00,,,0.00,,2013-02-21 18:52:00,
2013-02-21 14:01:00,22.0,16.0,30.22,North,5,4.0,8.0,76,0.00,,,0.00,,2013-02-21 19:01:00,
2013-02-21 14:12:00,22.0,16.0,30.22,North,5,4.0,8.0,76,0.00,,,0.00,,2013-02-21 19:12:00,
2013-02-21 14:21:00,22.0,16.0,30.21,North,9,2.0,6.0,76,0.00,,,0.00,,2013-02-21 19:21:00,
2013-02-21 14:32:00,23.0,16.0,30.20,North,9,2.0,8.0,75,0.00,,,0.00,,2013-02-21 19:32:00,
2013-02-21 14:42:00,23.0,16.0,30.20,North,9,2.0,8.0,75,0.00,,,0.00,,2013-02-21 19:42:00,
2013-02-21 14:52:00,22.0,16.0,30.20,North,5,4.0,6.0,77,0.00,,,0.00,,2013-02-21 19:52:00,
2013-02-21 15:01:00,22.0,16.0,30.18,North,5,3.0,7.0,77,0.00,,,0.00,,2013-02-21 20:01:00,
2013-02-21 15:11:00,22.0,16.0,30.18,North,5,2.0,8.0,78,0.00,,,0.00,,2013-02-21 20:11:00,
2013-02-21 15:21:00,22.0,16.0,30.18,North,5,2.0,8.0,78,0.00,,,0.00,,2013-02-21 20:21:00,
2013-02-21 15:32:00,22.0,16.0,30.18,North,5,1.0,4.0,78,0.00,,,0.00,,2013-02-21 20:32:00,
2013-02-21 15:42:00,22.0,16.0,30.18,North,5,1.0,4.0,78,0.00,,,0.00,,2013-02-21 20:42:00,
2013-02-21 15:53:00,22.0,16.0,30.17,North,5,4.0,6.0,78,0.00,,,0.00,,2013-02-21 20:53:00,
2013-02-21 16:02:00,22.0,16.0,30.17,North,5,5.0,8.0,79,0.00,,,0.00,,2013-02-21 21:02:00,
2013-02-21 16:12:00,22.0,16.0,30.18,North,5,4.0,8.0,79,0.00,,,0.00,,2013-02-21 21:12:00,
2013-02-21 16:22:00,22.0,16.0,30.18,North,5,4.0,8.0,79,0.00,,,0.00,,2013-02-21 21:22:00,
2013-02-21 16:32:00,22.0,16.0,30.18,North,5,4.0,8.0,79,0.00,,,0.00,,2013-02-21 21:32:00,
2013-02-21 16:42:00,22.0,16.0,30.19,North,5,3.0,7.0,79,0.00,,,0.00,,2013-02-21 21:42:00,
2013-02-21 16:52:00,22.0,16.0,30.19,North,5,3.0,7.0,79,0.00,,,0.00,,2013-02-21 21:52:00,
2013-02-21 17:01:00,21.0,16.0,30.19,North,5,6.0,7.0,80,0.00,,,0.00,,2013-02-21 22:01:00,
2013-02-21 17:11:00,21.0,16.0,30.19,North,5,6.0,7.0,80,0.00,,,0.00,,2013-02-21 22:11:00,
2013-02-21 17:21:00,21.0,16.0,30.21,North,5,5.0,7.0,79,0.00,,,0.00,,2013-02-21 22:21:00,
2013-02-21 17:32:00,21.0,15.0,30.21,North,5,4.0,6.0,78,0.00,,,0.00,,2013-02-21 22:32:00,
2013-02-21 17:42:00,21.0,15.0,30.21,North,5,4.0,6.0,78,0.00,,,0.00,,2013-02-21 22:42:00,
2013-02-21 17:52:00,21.0,16.0,30.20,North,5,2.0,6.0,79,0.00,,,0.00,,2013-02-21 22:52:00,
2013-02-21 18:01:00,21.0,15.0,30.21,North,5,2.0,5.0,78,0.00,,,0.00,,2013-02-21 23:01:00,
2013-02-21 18:11:00,21.0,15.0,30.21,North,5,2.0,5.0,78,0.00,,,0.00,,2013-02-21 23:11:00,
2013-02-21 18:21:00,21.0,15.0,30.21,North,5,3.0,6.0,78,0.00,,,0.00,,2013-02-21 23:21:00,
2013-02-21 18:32:00,21.0,15.0,30.21,North,5,2.0,5.0,78,0.00,,,0.00,,2013-02-21 23:32:00,
2013-02-21 18:42:00,21.0,15.0,30.21,North,5,2.0,5.0,78,0.00,,,0.00,,2013-02-21 23:42:00,
2013-02-21 18:52:00,20.0,14.0,30.22,North,5,1.0,3.0,78,0.00,,,0.00,,2013-02-21 23:52:00,
2013-02-21 19:01:00,20.0,14.0,30.23,North,5,1.0,4.0,78,0.00,,,0.00,,2013-02-22 00:01:00,
2013-02-21 19:11:00,20.0,14.0,30.23,North,5,1.0,4.0,78,0.00,,,0.00,,2013-02-22 00:11:00,
2013-02-21 19:22:00,20.0,15.0,30.22,North,5,2.0,3.0,79,0.00,,,0.00,,2013-02-22 00:22:00,
2013-02-21 19:32:00,20.0,15.0,30.22,North,5,0.0,0.0,80,0.00,,,0.00,,2013-02-22 00:32:00,
2013-02-21 19:42:00,20.0,15.0,30.22,North,5,0.0,0.0,80,0.00,,,0.00,,2013-02-22 00:42:00,
2013-02-21 19:52:00,19.0,14.0,30.21,North,5,2.0,2.0,81,0.00,,,0.00,,2013-02-22 00:52:00,
2013-02-21 20:01:00,19.0,14.0,30.20,North,5,0.0,2.0,82,0.00,,,0.00,,2013-02-22 01:01:00,
2013-02-21 20:11:00,19.0,14.0,30.20,North,5,0.0,2.0,82,0.00,,,0.00,,2013-02-22 01:11:00,
2013-02-21 20:22:00,19.0,14.0,30.20,North,5,0.0,3.0,82,0.00,,,0.00,,2013-02-22 01:22:00,
2013-02-21 20:32:00,19.0,14.0,30.18,North,9,4.0,4.0,81,0.00,,,0.00,,2013-02-22 01:32:00,
2013-02-21 20:42:00,19.0,14.0,30.18,North,9,4.0,4.0,81,0.00,,,0.00,,2013-02-22 01:42:00,
2013-02-21 20:52:00,19.0,14.0,30.18,North,5,2.0,5.0,80,0.00,,,0.00,,2013-02-22 01:52:00,
2013-02-21 21:02:00,19.0,14.0,30.17,North,9,4.0,6.0,81,0.00,,,0.00,,2013-02-22 02:02:00,
2013-02-21 21:11:00,19.0,14.0,30.17,North,9,4.0,6.0,81,0.00,,,0.00,,2013-02-22 02:11:00,
2013-02-21 21:21:00,19.0,14.0,30.16,North,5,2.0,5.0,81,0.00,,,0.00,,2013-02-22 02:21:00,
2013-02-21 21:32:00,20.0,15.0,30.16,North,9,2.0,7.0,81,0.00,,,0.00,,2013-02-22 02:32:00,
2013-02-21 21:42:00,19.0,16.0,30.17,North,9,1.0,4.0,89,0.00,,,0.00,,2013-02-22 02:42:00,
2013-02-21 21:52:00,19.0,16.0,30.17,North,9,1.0,4.0,89,0.00,,,0.00,,2013-02-22 02:52:00,
2013-02-21 22:02:00,19.0,14.0,30.16,North,9,2.0,4.0,82,0.00,,,0.00,,2013-02-22 03:02:00,
2013-02-21 22:11:00,19.0,14.0,30.16,North,9,2.0,4.0,82,0.00,,,0.00,,2013-02-22 03:11:00,
2013-02-21 22:21:00,20.0,15.0,30.16,North,9,2.0,5.0,82,0.00,,,0.00,,2013-02-22 03:21:00,
2013-02-21 22:32:00,20.0,15.0,30.15,North,9,3.0,5.0,82,0.00,,,0.00,,2013-02-22 03:32:00,
2013-02-21 22:42:00,20.0,15.0,30.15,North,9,3.0,5.0,82,0.00,,,0.00,,2013-02-22 03:42:00,
2013-02-21 22:52:00,20.0,15.0,30.14,North,9,3.0,6.0,82,0.00,,,0.00,,2013-02-22 03:52:00,
2013-02-21 23:02:00,20.0,15.0,30.14,North,9,2.0,5.0,82,0.00,,,0.00,,2013-02-22 04:02:00,
2013-02-21 23:11:00,20.0,15.0,30.14,North,9,2.0,5.0,82,0.00,,,0.00,,2013-02-22 04:11:00,
2013-02-21 23:21:00,20.0,15.0,30.15,North,9,3.0,5.0,82,0.00,,,0.00,,2013-02-22 04:21:00,
2013-02-21 23:32:00,21.0,16.0,30.14,North,9,1.0,6.0,82,0.00,,,0.00,,2013-02-22 04:32:00,
2013-02-21 23:42:00,21.0,16.0,30.14,North,9,1.0,6.0,82,0.00,,,0.00,,2013-02-22 04:42:00,
2013-02-21 23:52:00,21.0,16.0,30.14,North,9,8.0,8.0,82,0.00,,,0.00,,2013-02-22 04:52:00,